Location: Bonnesvalyn
(49.1218°N, 3.3177°E)
Time: 14:31:03
(UTC+00:00)

Cosmos 2058 - Pass Details

Date: 09 February 2023
Orbit: 555 x 577 km, 82.5° (Epoch: 25 March)

Event Time Altitude Azimuth Distance (km) Brightness Sun altitude
Rises 19:39:57 0° 208° (SSW) 2,786 6.7 -27.1°
Reaches altitude 10° 19:42:16 10° 217° (SW) 1,890 5.8 -27.5°
Maximum altitude 19:46:10 38° 286° (WNW) 889 4.3 -28.1°
Enters shadow 19:48:45 19° 346° (NNW) 1,415 5.1 -28.5°
